Home > Weather > Galveston > Past weeks

Flag for USA Past Weather in Galveston, Texas, USA — Yesterday and Last 2 Weeks

Now
82 °F

Sunny.


Feels Like: 87 °F
Forecast: 76 / 83 °F
Wind: 9 mph from South

Location: Scholes Field

Current Time: May 31, 2016 at 11:14:28 AM

Latest Report: May 31, 2016 at 9:52 AM


Visibility: 10 mi

Pressure: 29.94 "Hg

Humidity: 72%

Dew Point: 72 °F

Location of GalvestonLocation

Past Weather in Galveston — Graph

°F

Galveston Temperature Yesterday

Maximum temperature yesterday: 82 °F (at 2:52 PM)
Minimum temperature yesterday: 75 °F (at 5:52 AM)
Average temperature yesterday: 79 °F

High & Low Weather Summary for the Past Weeks

 TemperatureHumidityPressure
High85 °F (May 25, 1:52 PM)100% (May 17, 4:52 AM)30.13 "Hg (May 17, 4:52 AM)
Low67 °F (May 27, 9:00 PM)67% (May 20, 3:52 PM)29.76 "Hg (May 27, 2:52 PM)
Average78 °F88%29.95 "Hg
* Reported May 16 9:52 AM — May 31 9:52 AM, Galveston, Weather by CustomWeather, © 2016

Note: Actual official high and low records may vary slightly from our data, if they occured in-between our weather recording intervals... More about our weather records

Advertising

Galveston Weather History for the Previous 24 Hours

Scroll right to see more
 ConditionsComfort  
Time TempWeatherWind HumidityBarometerVisibility
9:52 AM
Tue, May 31
82 °FSunny.9 mph72%29.94 "Hg10 mi
8:52 AM79 °FSunny.8 mph77%29.93 "Hg10 mi
7:52 AM79 °FPassing clouds.8 mph79%29.92 "Hg10 mi
6:52 AM77 °FPassing clouds.7 mph88%29.91 "Hg10 mi
5:52 AM75 °FPassing clouds.6 mph90%29.90 "Hg10 mi
4:52 AM76 °FClear.6 mph88%29.90 "Hg10 mi
3:52 AM77 °FClear.7 mph85%29.90 "Hg10 mi
2:52 AM77 °FClear.7 mph85%29.91 "Hg10 mi
1:52 AM77 °FPassing clouds.9 mph90%29.93 "Hg10 mi
12:52 AM78 °FPassing clouds.9 mph87%29.96 "Hg10 mi
11:52 PM
Mon, May 30
78 °FClear.10 mph84%29.96 "Hg10 mi
10:52 PM78 °FClear.12 mph82%29.95 "Hg10 mi
9:52 PM78 °FPassing clouds.10 mph82%29.94 "Hg10 mi
8:52 PM78 °FPassing clouds.7 mph82%29.94 "Hg10 mi
7:52 PM79 °FPassing clouds.7 mph79%29.94 "Hg10 mi
6:52 PM80 °FPassing clouds.12 mph79%29.92 "Hg10 mi
5:52 PM82 °FScattered clouds.13 mph79%29.95 "Hg10 mi
4:52 PM82 °FSunny.9 mph77%29.95 "Hg10 mi
3:52 PM81 °FSunny.14 mph79%29.93 "Hg10 mi
2:52 PM82 °FSunny.12 mph77%29.94 "Hg10 mi
1:52 PM81 °FSunny.13 mph79%29.97 "Hg10 mi
12:52 PM80 °FSunny.13 mph76%30.02 "Hg10 mi
11:58 AM80 °FScattered clouds.5 mph85%30.07 "Hg10 mi
Weather by CustomWeather, © 2016

See weather overviewHow to use our weather pages